Hourly Weather Rusin Yar

Today, 22 April, Thursday

Time Temperature Precipitation Wind Pressure Humidity
00:00 +8°C° 0 mm 3 mps 747 mmHg 83%
01:00 +8°C° 0.1 mm 3 mps 748 mmHg 86%
02:00 +7°C° 0.1 mm 3 mps 748 mmHg 89%
03:00 +7°C° 0.1 mm 3 mps 748 mmHg 92%
04:00 +7°C° 0 mm 2 mps 748 mmHg 92%
05:00 +7°C° 0 mm 2 mps 749 mmHg 92%
06:00 +6°C° 0 mm 2 mps 749 mmHg 92%
07:00 +8°C° 0 mm 2 mps 749 mmHg 83%
08:00 +10°C° 0 mm 3 mps 749 mmHg 74%
09:00 +12°C° 0 mm 3 mps 750 mmHg 65%
10:00 +13°C° 0.1 mm 3 mps 750 mmHg 59%
11:00 +14°C° 0.1 mm 3 mps 750 mmHg 53%
12:00 +17°C° 0.1 mm 3 mps 750 mmHg 47%
13:00 +17°C° 0.1 mm 3 mps 750 mmHg 47%
14:00 +16°C° 0.1 mm 3 mps 749 mmHg 47%
15:00 +16°C° 0.1 mm 3 mps 749 mmHg 47%
16:00 +16°C° 0.1 mm 2 mps 749 mmHg 51%
17:00 +15°C° 0.1 mm 2 mps 749 mmHg 55%
18:00 +15°C° 0.1 mm 2 mps 749 mmHg 59%
19:00 +14°C° 0 mm 2 mps 750 mmHg 62%
20:00 +13°C° 0 mm 2 mps 750 mmHg 66%
21:00 +12°C° 0 mm 2 mps 750 mmHg 70%
22:00 +12°C° 0 mm 2 mps 750 mmHg 72%
23:00 +10°C° 0 mm 2 mps 750 mmHg 75%

Tomorrow, 23 April, Friday

Time Temperature Precipitation Wind Pressure Humidity
00:00 +10°C° 0 mm 2 mps 750 mmHg 77%
01:00 +10°C° 0 mm 2 mps 750 mmHg 79%
02:00 +9°C° 0 mm 2 mps 750 mmHg 81%
03:00 +9°C° 0 mm 2 mps 750 mmHg 83%
04:00 +9°C° 0 mm 2 mps 750 mmHg 85%
05:00 +8°C° 0 mm 2 mps 750 mmHg 86%
06:00 +8°C° 0 mm 2 mps 750 mmHg 88%
07:00 +10°C° 0 mm 3 mps 750 mmHg 79%
08:00 +11°C° 0 mm 3 mps 750 mmHg 71%
09:00 +13°C° 0 mm 4 mps 750 mmHg 62%
10:00 +14°C° 0 mm 4 mps 749 mmHg 56%
11:00 +15°C° 0 mm 5 mps 749 mmHg 50%
12:00 +16°C° 0 mm 5 mps 749 mmHg 44%
13:00 +17°C° 0 mm 5 mps 748 mmHg 43%
14:00 +17°C° 0 mm 6 mps 748 mmHg 41%
15:00 +17°C° 0 mm 6 mps 747 mmHg 39%
16:00 +16°C° 0 mm 6 mps 747 mmHg 43%
17:00 +16°C° 0 mm 6 mps 747 mmHg 46%
18:00 +15°C° 0 mm 6 mps 746 mmHg 50%
19:00 +14°C° 0 mm 6 mps 746 mmHg 54%
20:00 +13°C° 0 mm 6 mps 747 mmHg 59%
21:00 +10°C° 0 mm 5 mps 747 mmHg 63%
22:00 +10°C° 0 mm 6 mps 746 mmHg 67%
23:00 +9°C° 0 mm 6 mps 746 mmHg 70%

Day after tomorrow, 24 April, Saturday

Time Temperature Precipitation Wind Pressure Humidity
00:00 +9°C° 0 mm 6 mps 746 mmHg 73%
01:00 +9°C° 0 mm 5 mps 745 mmHg 72%
02:00 +9°C° 0 mm 5 mps 745 mmHg 71%
03:00 +9°C° 0 mm 5 mps 744 mmHg 70%
04:00 +8°C° 0.1 mm 5 mps 744 mmHg 76%
05:00 +7°C° 0.1 mm 5 mps 744 mmHg 81%
06:00 +7°C° 0.1 mm 5 mps 744 mmHg 86%
07:00 +7°C° 0.3 mm 5 mps 745 mmHg 83%
08:00 +6°C° 0.3 mm 5 mps 745 mmHg 80%
09:00 +6°C° 0.3 mm 4 mps 745 mmHg 76%
10:00 +8°C° 0 mm 5 mps 745 mmHg 66%
11:00 +9°C° 0 mm 6 mps 745 mmHg 55%
12:00 +11°C° 0 mm 6 mps 746 mmHg 44%
13:00 +11°C° 0 mm 7 mps 745 mmHg 41%
14:00 +11°C° 0 mm 7 mps 745 mmHg 39%
15:00 +11°C° 0 mm 8 mps 745 mmHg 36%
16:00 +11°C° 0 mm 8 mps 745 mmHg 42%
17:00 +10°C° 0 mm 8 mps 746 mmHg 48%
18:00 +9°C° 0 mm 8 mps 746 mmHg 54%
19:00 +6°C° 0 mm 8 mps 747 mmHg 54%
20:00 +5°C° 0 mm 7 mps 747 mmHg 55%
21:00 +4°C° 0 mm 6 mps 748 mmHg 55%
22:00 +3°C° 0 mm 5 mps 748 mmHg 58%
23:00 +2°C° 0 mm 5 mps 748 mmHg 61%

25 April, Sunday

Time Temperature Precipitation Wind Pressure Humidity
00:00 +2°C° 0 mm 5 mps 748 mmHg 64%
01:00 +1°C° 0 mm 4 mps 749 mmHg 66%
02:00 +1°C° 0 mm 4 mps 749 mmHg 68%
03:00 +1°C° 0 mm 4 mps 749 mmHg 70%
04:00 0°C° 0 mm 4 mps 749 mmHg 72%
05:00 +1°C° 0 mm 3 mps 749 mmHg 73%
06:00 +1°C° 0 mm 3 mps 749 mmHg 75%
07:00 +3°C° 0 mm 3 mps 749 mmHg 67%
08:00 +5°C° 0 mm 4 mps 750 mmHg 59%
09:00 +6°C° 0 mm 4 mps 750 mmHg 51%
10:00 +7°C° 0 mm 4 mps 750 mmHg 46%
11:00 +8°C° 0 mm 4 mps 750 mmHg 42%
12:00 +10°C° 0 mm 4 mps 749 mmHg 37%
13:00 +11°C° 0 mm 4 mps 749 mmHg 36%
14:00 +11°C° 0 mm 3 mps 749 mmHg 34%
15:00 +12°C° 0 mm 3 mps 749 mmHg 33%
16:00 +12°C° 0 mm 3 mps 748 mmHg 34%
17:00 +13°C° 0 mm 2 mps 748 mmHg 35%
18:00 +12°C° 0 mm 2 mps 748 mmHg 35%
19:00 +10°C° 0 mm 2 mps 748 mmHg 39%
20:00 +10°C° 0 mm 1 mps 748 mmHg 42%
21:00 +9°C° 0 mm 1 mps 748 mmHg 46%
22:00 +7°C° 0 mm 2 mps 748 mmHg 47%
23:00 +7°C° 0 mm 2 mps 748 mmHg 49%

26 April, Monday

Time Temperature Precipitation Wind Pressure Humidity
00:00 +6°C° 0 mm 2 mps 748 mmHg 51%
01:00 +6°C° 0 mm 2 mps 748 mmHg 54%
02:00 +5°C° 0 mm 2 mps 747 mmHg 58%
03:00 +5°C° 0 mm 2 mps 747 mmHg 62%
04:00 +5°C° 0 mm 2 mps 747 mmHg 63%
05:00 +4°C° 0 mm 2 mps 747 mmHg 65%
06:00 +4°C° 0 mm 2 mps 747 mmHg 67%
07:00 +6°C° 0 mm 2 mps 747 mmHg 62%
08:00 +8°C° 0 mm 3 mps 747 mmHg 57%
09:00 +10°C° 0 mm 3 mps 746 mmHg 52%
10:00 +9°C° 0 mm 5 mps 746 mmHg 51%
11:00 +10°C° 0 mm 6 mps 746 mmHg 50%
12:00 +11°C° 0 mm 7 mps 746 mmHg 49%
13:00 +10°C° 0.1 mm 7 mps 746 mmHg 57%
14:00 +8°C° 0.1 mm 6 mps 746 mmHg 66%
15:00 +7°C° 0.1 mm 6 mps 746 mmHg 74%
16:00 +7°C° 0 mm 5 mps 746 mmHg 67%
17:00 +7°C° 0 mm 4 mps 746 mmHg 60%
18:00 +8°C° 0 mm 4 mps 746 mmHg 53%
19:00 +8°C° 0 mm 3 mps 746 mmHg 56%
20:00 +7°C° 0 mm 3 mps 746 mmHg 58%
21:00 +6°C° 0 mm 2 mps 746 mmHg 61%
22:00 +5°C° 0 mm 2 mps 746 mmHg 63%
23:00 +4°C° 0 mm 3 mps 746 mmHg 65%

27 April, Tuesday

Time Temperature Precipitation Wind Pressure Humidity
00:00 +3°C° 0 mm 3 mps 746 mmHg 67%
01:00 +3°C° 0 mm 3 mps 746 mmHg 70%
02:00 +2°C° 0 mm 3 mps 747 mmHg 73%
03:00 +1°C° 0 mm 4 mps 747 mmHg 76%
04:00 +1°C° 0 mm 3 mps 747 mmHg 77%
05:00 +1°C° 0 mm 3 mps 747 mmHg 78%
06:00 +1°C° 0 mm 3 mps 747 mmHg 78%
07:00 +1°C° 0 mm 4 mps 748 mmHg 69%
08:00 +4°C° 0 mm 4 mps 748 mmHg 60%
09:00 +5°C° 0 mm 5 mps 748 mmHg 50%
10:00 +6°C° 0 mm 5 mps 748 mmHg 46%
11:00 +7°C° 0 mm 5 mps 748 mmHg 42%
12:00 +8°C° 0 mm 5 mps 748 mmHg 38%
13:00 +8°C° 0 mm 5 mps 748 mmHg 37%
14:00 +9°C° 0 mm 5 mps 748 mmHg 36%
15:00 +9°C° 0 mm 5 mps 748 mmHg 35%
16:00 +9°C° 0 mm 5 mps 748 mmHg 35%
17:00 +10°C° 0 mm 4 mps 748 mmHg 35%
18:00 +10°C° 0 mm 4 mps 748 mmHg 35%
19:00 +9°C° 0 mm 3 mps 749 mmHg 39%
20:00 +7°C° 0 mm 2 mps 749 mmHg 42%
21:00 +7°C° 0 mm 1 mps 749 mmHg 46%
22:00 +6°C° 0 mm 1 mps 749 mmHg 47%
23:00 +5°C° 0 mm 2 mps 749 mmHg 48%
Show more